{"data":{"norad_id":62205,"epoch":"2026-05-25T02:48:30.646368Z","epoch_age_seconds":68052,"freshness":"FRESH","line1":"1 62205U 24229P   26145.11702137  .00024506  00000+0  89687-3 0  9991","line2":"2 62205  42.9942 184.9001 0000997 120.6808 239.4142 15.27588687 82417","mean_motion":15.27588687,"eccentricity":9.97e-5,"inclination_deg":42.9942,"raan_deg":184.9001,"arg_perigee_deg":120.6808,"mean_anomaly_deg":239.4142,"bstar":0.00089687,"rev_number":8241,"period_min":94.266212643142,"perigee_km":482.3390264994,"apogee_km":483.70714182018,"semimajor_km":6861.1600841598,"source":"CELESTRAK","updated_at":"2026-05-25T13:38:19.608649Z"}}